Weather History for EDQM - October, 2013

Change the Weather History Date:

Wednesday, October 16, 2013

  Actual Average (WUND) Record (WUND)
Temperature  
Mean Temperature 44 °F -  
Max Temperature 48 °F - - (-1)
Min Temperature 40 °F - - (-1)
Degree Days  
Heating Degree Days 21    
Moisture  
Dew Point 39 °F    
Average Humidity 85    
Maximum Humidity 93    
Minimum Humidity 65    
Precipitation  
Precipitation 0.00 in - - ()
Sea Level Pressure  
Sea Level Pressure 29.90 in    
Wind  
Wind Speed 6 mph ()    
Max Wind Speed 12 mph    
Max Gust Speed -    
Visibility 6.3 miles    
Events Rain    
Averages and records for this station are not official NWS values.
T = Trace of Precipitation, MM = Missing Value Source: Averaged Metar Reports

Daily Weather History Graph

Daily Weather History Graph

Search for Another Location

Airport or City:

Trip Planner

Search our weather history database for the weather conditions in past years. The results will help you decide how hot, cold, wet, or windy it might be!

Date:

Astronomy

Oct. 16, 2013 Rise Set
Actual Time 7:36 AM CEST 6:18 PM CEST
Civil Twilight 7:03 AM CEST 6:51 PM CEST
Nautical Twilight 6:25 AM CEST 7:29 PM CEST
Astronomical Twilight 5:48 AM CEST 8:06 PM CEST
Moon 5:00 PM CEST (10/16) 4:31 AM CEST (10/16)
Length of Visible Light 11h 48m
Length of Day
10h 42m
Waxing Gibbous, 92% of the Moon is Illuminated
Oct 16
Waxing Gibbous
Oct 19
Full
Oct 27
Last Quarter
Nov 3
New
Nov 10
First Quarter

Hourly Weather History & Observations

Time (CEST) Temp. Windchill Dew Point Humidity Pressure Visibility Wind Dir Wind Speed Gust Speed Precip Events Conditions
12:00 AM 40 °F - 38 °F 92% 29.79 in 8 mi West 4.5 mph - -   Overcast
12:20 AM 41.0 °F 38.0 °F 39.2 °F 93% 29.77 in 6.2 mi West 4.6 mph - N/A   Mostly Cloudy
12:50 AM 41.0 °F 37.1 °F 37.4 °F 87% 29.77 in 6.2 mi WSW 5.8 mph - N/A   Mostly Cloudy
1:00 AM 41 °F - 39 °F 92% 29.79 in 7 mi West 2.2 mph - -   Overcast
1:20 AM 41.0 °F 37.1 °F 37.4 °F 87% 29.77 in 5.6 mi SW 5.8 mph - N/A   Overcast
1:50 AM 41.0 °F - 37.4 °F 87% 29.77 in 6.2 mi Variable 2.3 mph - N/A   Overcast
2:00 AM 42 °F - 39 °F 87% 29.79 in 7 mi WNW 4.5 mph - -   Clear
2:20 AM 41.0 °F 38.0 °F 39.2 °F 93% 29.77 in 5.6 mi WSW 4.6 mph - N/A   Overcast
2:50 AM 41.0 °F 37.1 °F 37.4 °F 87% 29.77 in 4.3 mi WSW 5.8 mph - N/A   Overcast
3:20 AM 41.0 °F 37.1 °F 37.4 °F 87% 29.77 in 4.3 mi WSW 5.8 mph - N/A   Overcast
3:50 AM 41.0 °F 36.4 °F 37.4 °F 87% 29.77 in 5.0 mi West 6.9 mph - N/A   Overcast
4:00 AM 41 °F - 40 °F 92% 29.79 in 6 mi West 4.5 mph - -   Overcast
4:20 AM 41.0 °F 36.4 °F 37.4 °F 87% 29.77 in 5.0 mi West 6.9 mph - N/A   Mostly Cloudy
4:50 AM 41.0 °F 37.1 °F 37.4 °F 87% 29.80 in 5.0 mi West 5.8 mph - N/A   Overcast
5:20 AM 41.0 °F 37.1 °F 37.4 °F 87% 29.80 in 4.3 mi WSW 5.8 mph - N/A   Overcast
5:50 AM 41.0 °F 36.4 °F 37.4 °F 87% 29.80 in 5.0 mi West 6.9 mph - N/A   Overcast
6:00 AM 41 °F - 40 °F 92% 29.83 in 6 mi West 4.5 mph - -   Mostly Cloudy
6:20 AM 41.0 °F 37.1 °F 39.2 °F 93% 29.80 in 4.3 mi West 5.8 mph - N/A   Overcast
6:50 AM 41.0 °F 36.4 °F 39.2 °F 93% 29.83 in 4.3 mi West 6.9 mph - N/A   Overcast
7:00 AM 42 °F - 40 °F 88% 29.85 in 6 mi West 4.5 mph - - Rain Light Drizzle
7:20 AM 41.0 °F 37.1 °F 39.2 °F 93% 29.83 in 5.0 mi WSW 5.8 mph - N/A   Light Drizzle
7:50 AM 41.0 °F 36.4 °F 39.2 °F 93% 29.83 in 3.7 mi West 6.9 mph - N/A Rain Light Rain
8:00 AM 41 °F - 40 °F 93% 29.87 in 6 mi WNW 4.5 mph - - Rain Light Drizzle
8:20 AM 41.0 °F 35.8 °F 39.2 °F 93% 29.86 in 4.3 mi West 8.1 mph - N/A   Mostly Cloudy
8:50 AM 42.8 °F 37.5 °F 39.2 °F 87% 29.86 in 6.2 mi West 9.2 mph - N/A   Overcast
9:00 AM 42 °F - 40 °F 89% 29.89 in 9 mi WNW 6.7 mph - - Rain Light Drizzle
9:20 AM 42.8 °F 38.6 °F 39.2 °F 87% 29.86 in 5.6 mi West 6.9 mph - N/A   Overcast
9:50 AM 42.8 °F 37.5 °F 39.2 °F 87% 29.89 in 6.2 mi West 9.2 mph - N/A   Overcast
10:00 AM 43 °F - 41 °F 88% 29.91 in 11 mi WNW 6.7 mph - -   Mostly Cloudy
10:20 AM 42.8 °F 37.5 °F 39.2 °F 87% 29.89 in 6.2 mi WNW 9.2 mph - N/A   Overcast
10:50 AM 44.6 °F 40.2 °F 39.2 °F 81% 29.92 in 6.2 mi WNW 8.1 mph - N/A   Overcast
11:20 AM 44.6 °F 40.2 °F 39.2 °F 81% 29.92 in 6.2 mi NW 8.1 mph - N/A   Overcast
11:50 AM 44.6 °F 40.2 °F 39.2 °F 81% 29.95 in 6.2 mi WNW 8.1 mph - N/A   Overcast
12:00 PM 44 °F - 40 °F 80% 29.95 in 12 mi NNW 6.7 mph - -   Mostly Cloudy
12:20 PM 44.6 °F 40.7 °F 39.2 °F 81% 29.95 in 6.2 mi NW 6.9 mph - N/A   Overcast
12:50 PM 46.4 °F 42.9 °F 37.4 °F 71% 29.95 in 6.2 mi WNW 6.9 mph - N/A   Mostly Cloudy
1:00 PM 45 °F - 39 °F 74% 29.96 in 12 mi WNW 6.7 mph - -   Mostly Cloudy
1:20 PM 46.4 °F 43.5 °F 37.4 °F 71% 29.95 in 6.2 mi NW 5.8 mph - N/A   Overcast
1:50 PM 46.4 °F 43.5 °F 37.4 °F 71% 29.95 in 6.2 mi WNW 5.8 mph - N/A   Mostly Cloudy
2:00 PM 47 °F - 39 °F 65% 29.96 in 19 mi WNW 6.7 mph - -   Partly Cloudy
2:20 PM 46.4 °F 43.5 °F 39.2 °F 76% 29.95 in 6.2 mi SW 5.8 mph - N/A   Overcast
2:50 PM 46.4 °F 43.5 °F 39.2 °F 76% 29.95 in 6.2 mi SW 5.8 mph - N/A   Overcast
3:00 PM 47 °F - 39 °F 66% 29.96 in 19 mi WSW 4.5 mph - -   Mostly Cloudy
3:20 PM 46.4 °F 42.4 °F 39.2 °F 76% 29.95 in 6.2 mi SSW 8.1 mph - N/A   Overcast
3:50 PM 46.4 °F 42.9 °F 39.2 °F 76% 29.95 in 6.2 mi SW 6.9 mph - N/A   Mostly Cloudy
4:00 PM 46 °F - 41 °F 77% 29.97 in 16 mi West 6.7 mph - -   Overcast
4:20 PM 46.4 °F 41.1 °F 39.2 °F 76% 29.98 in 6.2 mi WSW 11.5 mph - N/A   Mostly Cloudy
4:50 PM 46.4 °F 41.5 °F 41.0 °F 81% 29.95 in 6.2 mi WSW 10.4 mph - N/A   Mostly Cloudy
5:20 PM 44.6 °F 39.2 °F 39.2 °F 81% 29.95 in 6.2 mi SW 10.4 mph - N/A   Mostly Cloudy
5:50 PM 44.6 °F 39.2 °F 39.2 °F 81% 29.95 in 6.2 mi WSW 10.4 mph - N/A   Mostly Cloudy
6:00 PM 45 °F - 41 °F 80% 29.98 in 6 mi West 6.7 mph - -   Overcast
6:20 PM 44.6 °F 40.2 °F 39.2 °F 81% 29.98 in 4.3 mi WSW 8.1 mph - N/A   Mostly Cloudy
6:50 PM 44.6 °F 40.7 °F 39.2 °F 81% 29.98 in 5.0 mi WSW 6.9 mph - N/A   Mostly Cloudy
7:00 PM 44 °F - 41 °F 86% 29.99 in 6 mi West 6.7 mph - - Rain Rain
7:20 PM 42.8 °F 40.1 °F 39.2 °F 87% 29.98 in 4.3 mi SW 4.6 mph - N/A   Scattered Clouds
7:50 PM 42.8 °F 38.6 °F 39.2 °F 87% 29.98 in 4.3 mi SSW 6.9 mph - N/A   Scattered Clouds
8:00 PM 43 °F - 41 °F 88% 30.01 in 6 mi SSW 4.5 mph - -   Clear
8:20 PM 41.0 °F 36.4 °F 37.4 °F 87% 29.98 in 5.0 mi SSW 6.9 mph - N/A   Partly Cloudy
8:50 PM 41.0 °F 37.1 °F 37.4 °F 87% 29.98 in 3.1 mi South 5.8 mph - N/A   Mist
9:00 PM 43 °F - 41 °F 89% 30.01 in 4 mi SSW 4.5 mph - -   Mist
9:20 PM 42.8 °F 38.6 °F 39.2 °F 87% 29.98 in 3.1 mi SSW 6.9 mph - N/A   Mostly Cloudy
9:50 PM 42.8 °F 38.6 °F 39.2 °F 87% 30.01 in 3.7 mi SSW 6.9 mph - N/A   Mostly Cloudy
10:00 PM 43 °F - 41 °F 89% 30.01 in 4 mi South 2.2 mph - -   Mist
10:20 PM 42.8 °F 38.6 °F 39.2 °F 87% 29.98 in 3.7 mi SSW 6.9 mph - N/A   Overcast
10:50 PM 42.8 °F 40.1 °F 39.2 °F 87% 29.98 in 3.1 mi South 4.6 mph - N/A   Overcast
11:20 PM 41.0 °F 38.0 °F 37.4 °F 87% 29.95 in - South 4.6 mph - N/A   Mist
11:50 PM 42.8 °F 38.0 °F 39.2 °F 87% 29.98 in - SW 8.1 mph - N/A   Scattered Clouds